Watertown, NY

6:42 AM EST on December 07, 2019 (GMT -0500)
Watertown International

Weather History for KART - July, 2019

Change the Weather History Date:

Sunday, July 21, 2019

  Actual Average Record
Temperature  
Mean Temperature 73 °F 69 °F  
Max Temperature 81 °F 80 °F 94 °F (1964)
Min Temperature 64 °F 59 °F 45 °F (1966)
Degree Days  
Heating Degree Days 0 1  
Month to date heating degree days 3 22  
Since 1 June heating degree days 105 129  
Since 1 July heating degree days 3 22  
Cooling Degree Days 8 5  
Month to date cooling degree days 139 94  
Year to date cooling degree days 165 167  
Since 1 June cooling degree days 165 156  
Growing Degree Days 24 (Base 50)    
Moisture  
Dew Point 69 °F    
Average Humidity 78    
Maximum Humidity 94    
Minimum Humidity 62    
Precipitation  
Precipitation 0.00 in 0.09 in 1.02 in (1995)
Month to date precipitation 1.98 1.74  
Year to date precipitation 24.25 17.74  
Sea Level Pressure  
Sea Level Pressure 29.78 in    
Wind  
Wind Speed 9 mph (SW)    
Max Wind Speed 23 mph    
Max Gust Speed 30 mph    
Visibility 10 miles    
Events      
T = Trace of Precipitation, MM = Missing Value Source: NWS Daily Summary

Daily Weather History Graph

Daily Weather History Graph

Search for Another Location

Airport or City:

Astronomy

Jul. 21, 2019 Rise Set
Actual Time 5:40 AM EDT 8:39 PM EDT
Civil Twilight 5:06 AM EDT 9:14 PM EDT
Nautical Twilight 4:22 AM EDT 9:57 PM EDT
Astronomical Twilight 3:30 AM EDT 10:49 PM EDT
Moon 11:24 PM EDT (7/21) 10:06 AM EDT (7/21)
Length of Visible Light 16h 07m
Length of Day
14h 59m
Waning Gibbous, 80% of the Moon is Illuminated
Jul 21
Waning Gibbous
Jul 24
Last Quarter
Jul 31
New
Aug 7
First Quarter
Aug 15
Full

Hourly Weather History & Observations

Time (EDT) Temp. Heat Index Dew Point Humidity Pressure Visibility Wind Dir Wind Speed Gust Speed Precip Events Conditions
12:56 AM 75.9 °F - 73.0 °F 91% 29.72 in 10.0 mi SSW 10.4 mph - N/A   Clear
1:56 AM 75.9 °F - 72.0 °F 87% 29.69 in 10.0 mi South 5.8 mph - N/A   Clear
2:56 AM 73.9 °F - 71.1 °F 91% 29.70 in 10.0 mi SW 5.8 mph - N/A   Clear
3:56 AM 73.0 °F - 71.1 °F 93% 29.73 in 10.0 mi SW 8.1 mph - N/A   Clear
4:56 AM 73.0 °F - 71.1 °F 93% 29.73 in 10.0 mi SW 9.2 mph - N/A   Partly Cloudy
5:56 AM 73.0 °F - 71.1 °F 93% 29.73 in 10.0 mi SW 6.9 mph - N/A   Clear
6:39 AM 73.0 °F - 71.1 °F 93% 29.77 in 10.0 mi SW 10.4 mph - N/A   Partly Cloudy
6:56 AM 73.9 °F - 71.1 °F 91% 29.75 in 10.0 mi SW 15.0 mph - N/A   Scattered Clouds
7:22 AM 75.0 °F - 71.1 °F 87% 29.77 in 10.0 mi SW 11.5 mph 18.4 mph N/A   Mostly Cloudy
7:56 AM 75.0 °F - 72.0 °F 90% 29.76 in 10.0 mi WSW 9.2 mph - N/A   Scattered Clouds
8:08 AM 75.0 °F - 71.1 °F 87% 29.78 in 10.0 mi WSW 12.7 mph - N/A   Mostly Cloudy
8:19 AM 75.0 °F - 71.1 °F 87% 29.79 in 10.0 mi WSW 9.2 mph - N/A   Mostly Cloudy
8:45 AM 75.9 °F - 71.1 °F 85% 29.79 in 10.0 mi WSW 11.5 mph 21.9 mph N/A   Scattered Clouds
8:56 AM 75.9 °F - 71.1 °F 85% 29.78 in 10.0 mi West 13.8 mph 20.7 mph N/A   Scattered Clouds
9:09 AM 75.9 °F - 71.1 °F 85% 29.79 in 10.0 mi WSW 11.5 mph - N/A   Mostly Cloudy
9:42 AM 77.0 °F - 71.1 °F 82% 29.79 in 10.0 mi WSW 11.5 mph 19.6 mph N/A   Overcast
9:56 AM 77.0 °F - 71.1 °F 82% 29.77 in 10.0 mi WSW 10.4 mph - N/A   Overcast
10:56 AM 78.1 °F - 71.1 °F 79% 29.78 in 10.0 mi WSW 10.4 mph - N/A   Scattered Clouds
11:56 AM 81.0 °F 84.9 °F 71.1 °F 72% 29.78 in 10.0 mi WSW 10.4 mph - N/A   Clear
12:56 PM 79.0 °F - 70.0 °F 74% 29.79 in 10.0 mi WSW 12.7 mph - N/A   Partly Cloudy
1:56 PM 79.0 °F - 66.9 °F 66% 29.80 in 10.0 mi WSW 15.0 mph - N/A   Clear
2:56 PM 79.0 °F - 64.9 °F 62% 29.80 in 10.0 mi WSW 17.3 mph 26.5 mph N/A   Clear
3:56 PM 79.0 °F - 66.0 °F 64% 29.80 in 10.0 mi WSW 11.5 mph 19.6 mph N/A   Clear
4:56 PM 79.0 °F - 64.0 °F 60% 29.81 in 10.0 mi WSW 12.7 mph - N/A   Clear
5:56 PM 78.1 °F - 64.9 °F 64% 29.81 in 10.0 mi SW 8.1 mph - N/A   Clear
6:56 PM 75.9 °F - 64.9 °F 69% 29.81 in 10.0 mi SSW 8.1 mph - N/A   Clear
7:56 PM 75.0 °F - 64.0 °F 69% 29.83 in 10.0 mi SSW 8.1 mph - N/A   Mostly Cloudy
8:56 PM 73.9 °F - 64.0 °F 71% 29.85 in 10.0 mi Calm Calm - N/A   Overcast
9:56 PM 70.0 °F - 64.0 °F 81% 29.85 in 10.0 mi SSW 4.6 mph - N/A   Clear
10:56 PM 68.0 °F - 64.0 °F 87% 29.85 in 10.0 mi SSE 3.5 mph - N/A   Clear
11:56 PM 66.9 °F - 64.0 °F 90% 29.86 in 10.0 mi SSE 4.6 mph - N/A   Clear